Location: Newark
(22.3060°N, 114.2134°E)
Time: 20:37:58
(UTC+00:00)

Vanguard 2 - Pass Details

Date: 04 August 2021
Orbit: 553 x 2937 km, 32.9° (Epoch: 27 September)

Event Time Altitude Azimuth Distance (km) Brightness Sun altitude
Rises 16:59:30 0° 224° (SW) 3,997 - -50.0°
Reaches altitude 10° 17:03:00 10° 216° (SW) 2,678 - -49.8°
Maximum altitude 17:08:23 34° 152° (SSE) 1,168 - -49.5°
Drops below altitude 10° 17:12:19 10° 86° (E) 1,944 - -49.3°
Sets 17:14:28 0° 76° (ENE) 2,756 - -49.1°
